This is the latest recevied weather packets stored in our database for station/object IW1RID-3. If no packets are shown the sender has not sent any weather packets the latest 10 day(s).
| Time | Temp. | Humidity | Pressure | Rain* | Wind** | Luminosity | Snow |
|---|---|---|---|---|---|---|---|
| 1777841218 | 15° C | 76% | 1076.5 hPa | - | - | - | - |
| 1777840014 | 15.56° C | 73% | 1076.8 hPa | - | - | - | - |
| 1777838809 | 16.11° C | 72% | 1076.8 hPa | - | - | - | - |
| 1777837604 | 16.11° C | 71% | 1076.7 hPa | - | - | - | - |
| 1777836399 | 16.11° C | 71% | 1076.5 hPa | - | - | - | - |
| 1777835195 | 16.67° C | 71% | 1076.3 hPa | - | - | - | - |
| 1777833988 | 16.67° C | 70% | 1076.1 hPa | - | - | - | - |
| 1777833862 | 16.67° C | 70% | 1076.1 hPa | - | - | - | - |
| 1777832657 | 17.22° C | 69% | 1076.1 hPa | - | - | - | - |
| 1777831452 | 17.22° C | 66% | 1076.1 hPa | - | - | - | - |
| 1777830247 | 17.78° C | 65% | 1076.1 hPa | - | - | - | - |
| 1777829043 | 17.78° C | 62% | 1076.2 hPa | - | - | - | - |
| 1777827837 | 18.33° C | 61% | 1076.2 hPa | - | - | - | - |
| 1777826633 | 18.89° C | 60% | 1076.2 hPa | - | - | - | - |
| 1777825428 | 19.44° C | 59% | 1076.3 hPa | - | - | - | - |
| 1777824223 | 20° C | 59% | 1076.4 hPa | - | - | - | - |
| 1777823018 | 20.56° C | 56% | 1076.6 hPa | - | - | - | - |
| 1777821813 | 21.11° C | 53% | 1076.7 hPa | - | - | - | - |
| 1777820608 | 21.11° C | 53% | 1076.6 hPa | - | - | - | - |
| 1777819403 | 20.56° C | 54% | 1076.8 hPa | - | - | - | - |
| 1777818198 | 20.56° C | 54% | 1077.2 hPa | - | - | - | - |
| 1777816993 | 19.44° C | 57% | 1077.5 hPa | - | - | - | - |
| 1777815788 | 20.56° C | 54% | 1077.9 hPa | - | - | - | - |
| 1777814584 | 19.44° C | 57% | 1077.8 hPa | - | - | - | - |
| 1777813378 | 19.44° C | 57% | 1078.2 hPa | - | - | - | - |
* Rain since midnight (hover to see other rain measurements)
** Current wind speed in m/s (hover to see current wind gust speed)